Location: Arrodets-la-Barthe
(43.0306°N, 0.2829°E)
Time: 19:26:26
(UTC+00:00)

OE (NEXTSAT) - Pass Details

Date: 24 October 2021
Orbit: 419 x 427 km, 46.0° (Epoch: 01 December)

Event Time Altitude Azimuth Distance (km) Brightness Sun altitude
Rises 17:28:28 0° 245° (WSW) 2,376 10.1 -5.5°
Reaches altitude 10° 17:30:35 10° 244° (WSW) 1,510 8.6 -5.9°
Maximum altitude 17:33:59 78° 159° (SSE) 437 4.3 -6.5°
Drops below altitude 10° 17:37:23 10° 72° (ENE) 1,509 6.4 -7.1°
Enters shadow 17:37:32 - 72° (ENE) 1,566 6.5 -7.2°
